Flag for Austria Weather past 2 weeks in Wels, Upper Austria, Austria

Now
26 °F

Overcast.


Feels Like: N/A
Forecast: 27 / 34 °F
Wind: N/A

Location: Linz / Hoersching-Flughafen

Current Time: Feb 1, 2015 at 9:16:14 AM

Latest Report: Feb 1, 2015 at 8:00 AM


Visibility: 6 mi

Pressure: 29.32 "Hg

Humidity: 92%

Dew point: 24 °F

Location of WelsLocation

Historic Weather in Wels — Graph

°F

Wels temperature yesterday

Maximum temperature yesterday: 39 °F (at 3:00 PM)
Minimum temperature yesterday: 26 °F (at 11:00 PM)
Average temperature yesterday: 32 °F

Past Weeks' High & Low Weather Summary

 TemperatureHumidityPressure
High43 °F (Jan 22, 3:00 PM)100% (Jan 26, 10:00 PM)30.38 "Hg (Jan 26, 10:00 PM)
Low23 °F (Feb 1, 4:00 AM)59% (Jan 31, 3:00 PM)28.76 "Hg (Jan 30, 5:00 AM)
Average33 °F86%29.86 "Hg
* Reported Jan 17 8:00 AM — Feb 1 8:00 AM, Wels, Weather by CustomWeather, © 2014

Note: Actual official high and low records may vary slightly from our data, if they occured in-between our weather recording intervals... More about our weather records

Advertising

Wels weather history for previous 24 hours

 ConditionsComfort  
Time TempWeatherWind HumidityBarometerVisibility
8:00 AM
Feb 1
26 °FOvercast.N/A92%29.32 "Hg6 mi
7:00 AM26 °FOvercast.N/A93%29.29 "Hg7 mi
6:00 AM26 °FOvercast.N/A94%29.29 "Hg6 mi
5:00 AM25 °FOvercast.N/A95%29.29 "Hg6 mi
4:00 AM23 °FOvercast.N/A96%29.29 "Hg6 mi
3:00 AM23 °FPassing clouds.N/A92%29.29 "Hg6 mi
2:00 AM24 °FPassing clouds.N/A93%29.26 "Hg6 mi
1:00 AM25 °FPassing clouds.N/A92%29.26 "Hg7 mi
12:00 AM25 °FOvercast.N/A90%29.26 "Hg9 mi
11:00 PM
Jan 31
26 °FPassing clouds.N/A92%29.23 "Hg9 mi
10:00 PMN/APassing clouds.13 mphN/AN/A28 mi
9:00 PM28 °FPassing clouds.N/A86%29.23 "Hg15 mi
8:00 PM28 °FPassing clouds.N/A88%29.21 "Hg12 mi
7:00 PM30 °FPassing clouds.N/A81%29.21 "Hg22 mi
6:00 PM33 °FPassing clouds.N/A71%29.18 "Hg18 mi
5:00 PM36 °FPassing clouds.N/A64%29.15 "Hg28 mi
4:00 PM38 °FScattered clouds.3 mph63%29.15 "Hg28 mi
3:00 PM39 °FPassing clouds.7 mph59%29.12 "Hg25 mi
2:00 PM39 °FScattered clouds.9 mph64%29.12 "Hg31 mi
1:00 PM37 °FScattered clouds.8 mph71%29.12 "Hg18 mi
12:00 PM35 °FOvercast.5 mph82%29.12 "Hg17 mi
11:00 AM32 °FSnow flurries. Low clouds.3 mph94%29.12 "Hg2 mi
10:00 AM33 °FLight snow. Overcast.5 mph84%29.12 "Hg19 mi
9:00 AM31 °FPartly sunny.N/A83%29.12 "Hg22 mi
Weather by CustomWeather, © 2014

See weather overviewHow to use our weather pages